Tracking 29892 objects as of 21-Nov-2024
HD Live streaming from Space Station
objects crossing your sky now

STARLINK-4591

Track STARLINK-4591 now!
10-day predictions
STARLINK-4591 is classified as:


NORAD ID: 53607
Int'l Code: 2022-104V
Perigee: 545.8 km
Apogee: 547.9 km
Inclination: 53.2 °
Period: 95.4 minutes
Semi major axis: 6917 km
RCS: Unknown
Launch date: August 28, 2022
Source: United States (US)
Launch site: AIR FORCE EASTERN TEST RANGE (AFETR)
Your satellite tracking list
Your tracking list is empty




NASA's NSSDC Master Catalog

Two Line Element Set (TLE):
1 53607U 22104V   24325.07514233  .00002468  00000-0  17309-3 0  9994
2 53607  53.2162 209.7944 0001502  80.8675 279.2487 15.08844724124031
Source of the keplerian elements: AFSPC